Port Heiden, AK

2:36 PM AKST on February 25, 2017 (GMT -0900)
Port Heiden

Weather History for PAPH - August, 2013

Change the Weather History Date:

Wednesday, August 28, 2013

  Actual Average Record
Temperature  
Mean Temperature 52 °F -  
Max Temperature 57 °F 53 °F 64 °F (1997)
Min Temperature 46 °F 45 °F 24 °F (2007)
Degree Days  
Heating Degree Days 14    
Growing Degree Days 2 (Base 50)    
Moisture  
Dew Point 43 °F    
Average Humidity 78    
Maximum Humidity 87    
Minimum Humidity 53    
Precipitation  
Precipitation 0.01 in - - ()
Sea Level Pressure  
Sea Level Pressure 29.62 in    
Wind  
Wind Speed 7 mph (NNE)    
Max Wind Speed 21 mph    
Max Gust Speed 25 mph    
Visibility 9 miles    
Events      
Averages and records for this station are not official NWS values.
T = Trace of Precipitation, MM = Missing Value Source: NWS Daily Summary

Daily Weather History Graph

Daily Weather History Graph

Search for Another Location

Airport or City:

Trip Planner

Search our weather history database for the weather conditions in past years. The results will help you decide how hot, cold, wet, or windy it might be!

Date:

Astronomy

Aug. 28, 2013 Rise Set
Actual Time 7:29 AM AKDT 9:40 PM AKDT
Civil Twilight 6:48 AM AKDT 10:21 PM AKDT
Nautical Twilight 5:55 AM AKDT 11:13 PM AKDT
Astronomical Twilight 4:50 AM AKDT 12:17 AM AKDT
Moon 12:13 AM AKDT (8/28) 5:04 PM AKDT (8/28)
Length of Visible Light 15h 33m
Length of Day
14h 10m
Last Quarter, 46% of the Moon is Illuminated
Aug 28
Last Quarter
Sep 5
New
Sep 12
First Quarter
Sep 19
Full
Sep 26
Last Quarter

Hourly Weather History & Observations

Time (AKDT) Temp. Windchill Dew Point Humidity Pressure Visibility Wind Dir Wind Speed Gust Speed Precip Events Conditions
12:16 AM 48.2 °F - 42.8 °F 82% 29.89 in 10.0 mi SW 4.6 mph - N/A   Overcast
12:36 AM 48.2 °F - 42.8 °F 82% 29.89 in 10.0 mi SW 4.6 mph - N/A   Overcast
12:56 AM 48.2 °F - 42.8 °F 82% 29.88 in 10.0 mi ESE 4.6 mph - N/A   Overcast
1:16 AM 48.2 °F - 42.8 °F 82% 29.88 in 10.0 mi SSE 5.8 mph - N/A   Overcast
1:36 AM 48.2 °F - 42.8 °F 82% 29.87 in 10.0 mi SSE 5.8 mph - N/A   Overcast
1:56 AM 48.2 °F - 42.8 °F 82% 29.86 in 10.0 mi South 5.8 mph - N/A   Overcast
2:16 AM 48.2 °F - 42.8 °F 82% 29.86 in 8.0 mi South 5.8 mph - N/A   Overcast
2:36 AM 48.2 °F - 42.8 °F 82% 29.85 in 5.0 mi SSE 4.6 mph - N/A   Overcast
2:56 AM 48.2 °F - 42.8 °F 82% 29.84 in 2.5 mi SSE 4.6 mph - N/A   Overcast
3:16 AM 48.2 °F - 42.8 °F 82% 29.83 in 5.0 mi SSE 4.6 mph - N/A   Overcast
3:36 AM 48.2 °F - 42.8 °F 82% 29.82 in 7.0 mi SE 4.6 mph - N/A   Overcast
3:56 AM 48.2 °F - 42.8 °F 82% 29.81 in 10.0 mi SSE 4.6 mph - N/A   Overcast
4:16 AM 48.2 °F - 42.8 °F 82% 29.80 in 10.0 mi SSE 3.5 mph - N/A   Overcast
4:36 AM 48.2 °F - 42.8 °F 82% 29.80 in 10.0 mi ESE 3.5 mph - N/A   Overcast
4:56 AM 46.4 °F - 41.0 °F 81% 29.79 in 10.0 mi Calm Calm - N/A   Overcast
5:16 AM 46.4 °F - 41.0 °F 81% 29.78 in 10.0 mi Calm Calm - N/A   Overcast
5:36 AM 46.4 °F 45.2 °F 41.0 °F 81% 29.77 in 10.0 mi SE 3.5 mph - N/A   Overcast
5:56 AM 46.4 °F 44.3 °F 41.0 °F 81% 29.76 in 10.0 mi SE 4.6 mph - N/A   Overcast
6:16 AM 46.4 °F 45.2 °F 41.0 °F 81% 29.75 in 10.0 mi SE 3.5 mph - N/A   Overcast
6:36 AM 46.4 °F 43.5 °F 41.0 °F 81% 29.74 in 10.0 mi NE 5.8 mph - N/A   Overcast
6:56 AM 46.4 °F 43.5 °F 41.0 °F 81% 29.73 in 10.0 mi NE 5.8 mph - N/A   Overcast
7:16 AM 46.4 °F 43.5 °F 41.0 °F 81% 29.71 in 10.0 mi NE 5.8 mph - N/A   Overcast
7:36 AM 46.4 °F 42.4 °F 41.0 °F 81% 29.70 in 10.0 mi NE 8.1 mph - N/A   Overcast
7:56 AM 46.4 °F 42.9 °F 41.0 °F 81% 29.69 in 10.0 mi NE 6.9 mph - N/A   Overcast
8:16 AM 46.4 °F 43.5 °F 41.0 °F 81% 29.68 in 10.0 mi NE 5.8 mph - N/A   Overcast
8:36 AM 46.4 °F 43.5 °F 41.0 °F 81% 29.67 in 10.0 mi ENE 5.8 mph - N/A   Overcast
8:56 AM 46.4 °F 42.9 °F 41.0 °F 81% 29.66 in 10.0 mi ENE 6.9 mph - N/A   Overcast
9:16 AM 46.4 °F 44.3 °F 41.0 °F 81% 29.65 in 10.0 mi NE 4.6 mph - N/A   Overcast
9:36 AM 48.2 °F - 42.8 °F 82% 29.64 in 10.0 mi NNE 3.5 mph - N/A   Overcast
9:56 AM 46.4 °F 44.3 °F 42.8 °F 87% 29.63 in 10.0 mi NNE 4.6 mph - N/A   Overcast
10:16 AM 48.2 °F - 42.8 °F 82% 29.62 in 10.0 mi NNE 4.6 mph - N/A   Overcast
10:36 AM 48.2 °F - 42.8 °F 82% 29.61 in 10.0 mi NNE 6.9 mph - N/A   Overcast
10:56 AM 46.4 °F 42.9 °F 42.8 °F 87% 29.61 in 10.0 mi NNE 6.9 mph - N/A   Overcast
11:16 AM 48.2 °F - 42.8 °F 82% 29.60 in 10.0 mi NNE 5.8 mph - N/A   Overcast
11:36 AM 48.2 °F - 42.8 °F 82% 29.60 in 10.0 mi NNE 4.6 mph - N/A   Overcast
11:56 AM 48.2 °F - 42.8 °F 82% 29.59 in 10.0 mi NNE 4.6 mph - N/A   Overcast
12:16 PM 50.0 °F - 42.8 °F 76% 29.58 in 10.0 mi North 5.8 mph - N/A   Overcast
12:36 PM 50.0 °F - 44.6 °F 82% 29.57 in 10.0 mi NE 4.6 mph - N/A   Overcast
12:56 PM 51.8 °F - 44.6 °F 76% 29.56 in 10.0 mi NNE 4.6 mph - N/A   Overcast
1:16 PM 51.8 °F - 44.6 °F 76% 29.55 in 10.0 mi NNE 5.8 mph - N/A   Overcast
1:36 PM 53.6 °F - 44.6 °F 72% 29.54 in 10.0 mi Calm Calm - N/A   Overcast
1:56 PM 53.6 °F - 44.6 °F 72% 29.53 in 10.0 mi North 3.5 mph - N/A   Overcast
2:16 PM 55.4 °F - 44.6 °F 67% 29.53 in 10.0 mi North 3.5 mph - N/A   Overcast
2:36 PM 55.4 °F - 42.8 °F 63% 29.52 in 10.0 mi NW 8.1 mph - N/A   Overcast
2:56 PM 55.4 °F - 42.8 °F 63% 29.52 in 10.0 mi WNW 9.2 mph - N/A   Overcast
3:16 PM 55.4 °F - 42.8 °F 63% 29.51 in 10.0 mi WNW 8.1 mph - N/A   Overcast
3:36 PM 55.4 °F - 44.6 °F 67% 29.50 in 10.0 mi West 9.2 mph - N/A   Overcast
3:56 PM 55.4 °F - 42.8 °F 63% 29.49 in 10.0 mi West 9.2 mph - N/A   Overcast
4:16 PM 55.4 °F - 42.8 °F 63% 29.48 in 10.0 mi SW 4.6 mph - N/A   Overcast
4:36 PM 55.4 °F - 42.8 °F 63% 29.48 in 10.0 mi ENE 9.2 mph - N/A   Overcast
4:56 PM 53.6 °F - 42.8 °F 67% 29.47 in 10.0 mi NE 17.3 mph - N/A   Overcast
5:16 PM 53.6 °F - 42.8 °F 67% 29.47 in 10.0 mi NNE 15.0 mph - N/A   Overcast
5:36 PM 53.6 °F - 42.8 °F 67% 29.46 in 10.0 mi NNE 16.1 mph - N/A   Overcast
5:56 PM 53.6 °F - 42.8 °F 67% 29.45 in 10.0 mi NNE 18.4 mph - N/A   Overcast
6:16 PM 53.6 °F - 42.8 °F 67% 29.46 in 10.0 mi North 18.4 mph 23.0 mph N/A   Overcast
6:36 PM 51.8 °F - 42.8 °F 71% 29.45 in 10.0 mi North 15.0 mph - N/A   Overcast
6:56 PM 51.8 °F - 42.8 °F 71% 29.45 in 10.0 mi North 16.1 mph 23.0 mph N/A   Overcast
7:16 PM 51.8 °F - 42.8 °F 71% 29.45 in 10.0 mi North 17.3 mph - N/A   Overcast
7:36 PM 51.8 °F - 44.6 °F 76% 29.45 in 10.0 mi North 13.8 mph - N/A   Overcast
7:56 PM 51.8 °F - 44.6 °F 76% 29.45 in 10.0 mi North 16.1 mph - N/A   Overcast
8:16 PM 50.0 °F - 44.6 °F 82% 29.45 in 7.0 mi North 15.0 mph - N/A   Overcast
8:36 PM 50.0 °F - 44.6 °F 82% 29.45 in 4.0 mi North 15.0 mph - N/A   Overcast
8:56 PM 48.2 °F - 42.8 °F 82% 29.45 in 2.5 mi NNW 18.4 mph 21.9 mph N/A   Overcast
9:16 PM 48.2 °F - 44.6 °F 87% 29.45 in 1.5 mi North 17.3 mph - 0.01 in   Overcast
9:36 PM 48.2 °F - 42.8 °F 82% 29.45 in 3.0 mi NNW 17.3 mph - 0.01 in   Overcast
9:56 PM 48.2 °F - 42.8 °F 82% 29.45 in 4.0 mi NNW 20.7 mph 25.3 mph 0.01 in   Overcast
10:16 PM 48.2 °F - 44.6 °F 87% 29.46 in 7.0 mi NNE 16.1 mph 24.2 mph N/A   Overcast
10:36 PM 48.2 °F - 42.8 °F 82% 29.47 in 7.0 mi North 17.3 mph - 0.01 in   Overcast
10:56 PM 48.2 °F - 42.8 °F 82% 29.47 in 6.0 mi North 18.4 mph 23.0 mph 0.01 in   Overcast
11:16 PM 48.2 °F - 42.8 °F 82% 29.47 in 8.0 mi North 19.6 mph - N/A   Mostly Cloudy
11:36 PM 48.2 °F - 42.8 °F 82% 29.48 in 5.0 mi North 19.6 mph - 0.01 in   Overcast
11:56 PM 48.2 °F - 42.8 °F 82% 29.48 in 7.0 mi North 19.6 mph 25.3 mph 0.01 in   Overcast